| time (UTC) | temp C | wind direction | speed KPH | gust KPH | rain 1hr cm | rain 24hr cm | rain mn cm | humidity % | barometer mb |
| 20260506130157 | 23 | 168 | 0.0 | 0.0 | 0.00 | 0.05 | 0.05 | 99 | 1010.7 |
| 20260506125655 | 23 | 160 | 0.0 | 0.0 | 0.00 | 0.05 | 0.05 | 99 | 1010.8 |
| 20260506125152 | 23 | 159 | 0.0 | 0.0 | 0.00 | 0.05 | 0.05 | 99 | 1010.8 |
| 20260506124650 | 23 | 162 | 0.0 | 0.0 | 0.00 | 0.05 | 0.05 | 99 | 1010.5 |
| 20260506124148 | 23 | 162 | 0.0 | 0.0 | 0.00 | 0.05 | 0.05 | 99 | 1010.5 |
| 20260506123645 | 23 | 160 | 0.0 | 0.0 | 0.00 | 0.05 | 0.05 | 99 | 1010.0 |
| 20260506123144 | 22 | 168 | 0.0 | 0.0 | 0.00 | 0.05 | 0.05 | 99 | 1010.3 |
| 20260506122640 | 22 | 162 | 0.0 | 0.0 | 0.00 | 0.05 | 0.05 | 99 | 1010.4 |
| 20260506122138 | 22 | 162 | 0.0 | 0.0 | 0.00 | 0.05 | 0.05 | 99 | 1010.4 |
| 20260506121635 | 22 | 165 | 0.0 | 0.0 | 0.00 | 0.05 | 0.05 | 99 | 1010.4 |
| 20260506121131 | 22 | 176 | 0.0 | 0.0 | 0.00 | 0.05 | 0.05 | 99 | 1010.7 |
| 20260506120630 | 22 | 176 | 0.0 | 0.0 | 0.00 | 0.05 | 0.05 | 99 | 1010.4 |
| 20260506120126 | 22 | 176 | 0.0 | 0.0 | 0.13 | 0.05 | 0.05 | 98 | 1010.3 |
| 20260506115625 | 23 | 176 | 0.0 | 0.0 | 0.30 | 0.05 | 0.05 | 98 | 1010.2 |
| 20260506115123 | 23 | 176 | 0.0 | 0.0 | 0.18 | 0.03 | 0.03 | 98 | 1010.4 |
| 20260506114620 | 23 | 176 | 0.0 | 0.0 | 0.00 | 0.00 | 0.00 | 98 | 1010.2 |
| 20260506114118 | 23 | 176 | 0.0 | 0.0 | 0.00 | 0.00 | 0.00 | 98 | 1010.2 |
| 20260506113616 | 23 | 176 | 0.0 | 0.0 | 0.00 | 0.00 | 0.00 | 98 | 1010.3 |
| 20260506113113 | 23 | 177 | 0.0 | 0.0 | 0.00 | 0.00 | 0.00 | 97 | 1010.1 |
| 20260506112609 | 23 | 176 | 0.0 | 0.0 | 0.00 | 0.00 | 0.00 | 97 | 1010.4 |
| 20260506112107 | 23 | 176 | 0.0 | 0.0 | 0.00 | 0.00 | 0.00 | 97 | 1010.2 |
| 20260506111604 | 23 | 176 | 0.0 | 0.0 | 0.00 | 0.00 | 0.00 | 97 | 1010.4 |
| 20260506111101 | 23 | 177 | 0.0 | 0.0 | 0.00 | 0.00 | 0.00 | 97 | 1010.2 |
| 20260506110559 | 23 | 177 | 0.0 | 0.0 | 0.00 | 0.00 | 0.00 | 97 | 1010.2 |
| 20260506110056 | 23 | 176 | 0.0 | 0.0 | 0.00 | 0.00 | 0.00 | 97 | 1010.3 |
| 20260506105552 | 23 | 177 | 0.0 | 0.0 | 0.00 | 0.00 | 0.00 | 96 | 1010.4 |
| 20260506105050 | 23 | 173 | 0.0 | 0.0 | 0.00 | 0.00 | 0.00 | 96 | 1010.3 |
| 20260506104548 | 23 | 173 | 0.0 | 0.0 | 0.00 | 0.00 | 0.00 | 96 | 1010.4 |
| 20260506104045 | 23 | 181 | 0.0 | 0.0 | 0.00 | 0.00 | 0.00 | 95 | 1010.3 |
| 20260506103542 | 23 | 176 | 0.0 | 0.0 | 0.00 | 0.00 | 0.00 | 95 | 1010.3 |
| 20260506103039 | 23 | 175 | 0.0 | 0.0 | 0.00 | 0.00 | 0.00 | 95 | 1010.2 |
| 20260506102537 | 23 | 179 | 0.0 | 0.0 | 0.00 | 0.00 | 0.00 | 94 | 1010.2 |
| 20260506102034 | 23 | 182 | 0.0 | 0.0 | 0.00 | 0.00 | 0.00 | 94 | 1010.0 |
| 20260506101531 | 23 | 189 | 0.0 | 0.0 | 0.00 | 0.00 | 0.00 | 93 | 1010.1 |
| 20260506101028 | 23 | 165 | 0.0 | 1.6 | 0.00 | 0.00 | 0.00 | 93 | 1010.0 |
| 20260506100526 | 23 | 187 | 0.0 | 0.0 | 0.00 | 0.00 | 0.00 | 93 | 1010.1 |
| 20260506100024 | 23 | 187 | 0.0 | 0.0 | 0.00 | 0.00 | 0.00 | 93 | 1009.8 |
| 20260506095523 | 23 | 186 | 0.0 | 1.6 | 0.00 | 0.00 | 0.00 | 93 | 1009.7 |
| 20260506095018 | 23 | 243 | 0.0 | 3.2 | 0.00 | 0.00 | 0.00 | 93 | 1009.7 |
| 20260506094516 | 23 | 179 | 0.0 | 0.0 | 0.00 | 0.00 | 0.00 | 93 | 1009.5 |
| 20260506094014 | 23 | 165 | 0.0 | 0.0 | 0.00 | 0.00 | 0.00 | 93 | 1009.6 |
| 20260506093512 | 23 | 171 | 0.0 | 0.0 | 0.00 | 0.00 | 0.00 | 93 | 1009.5 |
| 20260506093009 | 23 | 179 | 0.0 | 0.0 | 0.00 | 0.00 | 0.00 | 93 | 1009.5 |
| 20260506092507 | 23 | 177 | 0.0 | 0.0 | 0.00 | 0.00 | 0.00 | 92 | 1009.8 |
| 20260506092003 | 24 | 176 | 0.0 | 0.0 | 0.00 | 0.00 | 0.00 | 92 | 1009.3 |
| 20260506091502 | 24 | 176 | 0.0 | 0.0 | 0.00 | 0.00 | 0.00 | 92 | 1009.4 |
| 20260506090958 | 24 | 182 | 0.0 | 0.0 | 0.00 | 0.00 | 0.00 | 91 | 1009.4 |
| 20260506090457 | 24 | 173 | 0.0 | 0.0 | 0.00 | 0.00 | 0.00 | 91 | 1009.2 |
| 20260506085952 | 24 | 169 | 0.0 | 0.0 | 0.00 | 0.00 | 0.00 | 91 | 1009.2 |
| 20260506085449 | 24 | 165 | 0.0 | 0.0 | 0.00 | 0.00 | 0.00 | 91 | 1009.0 |
| 20260506084946 | 24 | 174 | 0.0 | 0.0 | 0.00 | 0.00 | 0.00 | 91 | 1009.2 |
| 20260506084443 | 24 | 175 | 0.0 | 0.0 | 0.00 | 0.00 | 0.00 | 91 | 1009.3 |
| 20260506083939 | 24 | 168 | 0.0 | 0.0 | 0.00 | 0.00 | 0.00 | 91 | 1009.2 |
| 20260506083437 | 24 | 167 | 0.0 | 0.0 | 0.00 | 0.00 | 0.00 | 91 | 1009.5 |
| 20260506082933 | 24 | 171 | 0.0 | 0.0 | 0.00 | 0.00 | 0.00 | 91 | 1008.9 |
| 20260506082431 | 24 | 169 | 0.0 | 0.0 | 0.00 | 0.00 | 0.00 | 91 | 1008.9 |
| 20260506081926 | 24 | 177 | 1.6 | 3.2 | 0.00 | 0.00 | 0.00 | 90 | 1008.9 |
| 20260506081425 | 24 | 204 | 1.6 | 3.2 | 0.00 | 0.00 | 0.00 | 90 | 1009.0 |
| 20260506080921 | 24 | 165 | 0.0 | 0.0 | 0.00 | 0.00 | 0.00 | 91 | 1009.2 |
| 20260506080418 | 24 | 165 | 0.0 | 0.0 | 0.00 | 0.00 | 0.00 | 90 | 1009.0 |
| 20260506073402 | 24 | 227 | 4.8 | 8.0 | 0.00 | 0.00 | 0.00 | 90 | 1009.2 |
| 20260506072859 | 24 | 165 | 0.0 | 0.0 | 0.00 | 0.00 | 0.00 | 90 | 1009.4 |
| 20260506072357 | 24 | 148 | 1.6 | 1.6 | 0.00 | 0.00 | 0.00 | 90 | 1009.3 |
| 20260506071854 | 24 | 168 | 0.0 | 0.0 | 0.00 | 0.00 | 0.00 | 91 | 1009.3 |
| 20260506071352 | 24 | 142 | 0.0 | 0.0 | 0.00 | 0.00 | 0.00 | 91 | 1009.2 |
| 20260506070849 | 24 | 180 | 1.6 | 1.6 | 0.00 | 0.00 | 0.00 | 91 | 1009.4 |
| 20260506070346 | 24 | 167 | 0.0 | 1.6 | 0.00 | 0.00 | 0.00 | 91 | 1009.2 |
| 20260506062323 | 24 | 167 | 0.0 | 0.0 | 0.00 | 0.00 | 0.00 | 92 | 1009.0 |
| 20260506061819 | 24 | 158 | 0.0 | 1.6 | 0.00 | 0.00 | 0.00 | 92 | 1009.0 |
| 20260506061316 | 24 | 176 | 0.0 | 1.6 | 0.00 | 0.00 | 0.00 | 92 | 1009.0 |
| 20260506060814 | 24 | 170 | 0.0 | 1.6 | 0.00 | 0.00 | 0.00 | 92 | 1008.9 |
| 20260506060312 | 24 | 163 | 1.6 | 3.2 | 0.00 | 0.00 | 0.00 | 92 | 1008.8 |
| 20260506051243 | 24 | 171 | 0.0 | 1.6 | 0.00 | 0.00 | 0.00 | 90 | 1008.8 |
| 20260506050741 | 24 | 165 | 1.6 | 1.6 | 0.00 | 0.00 | 0.00 | 90 | 1008.8 |
| 20260506050238 | 24 | 157 | 4.8 | 4.8 | 0.00 | 0.00 | 0.00 | 89 | 1008.8 |
| 20260506044729 | 24 | 168 | 0.0 | 0.0 | 0.00 | 0.00 | 0.00 | 89 | 1009.0 |
| 20260506044227 | 24 | 187 | 0.0 | 1.6 | 0.00 | 0.00 | 0.00 | 89 | 1009.0 |
| 20260506043724 | 24 | 167 | 0.0 | 0.0 | 0.00 | 0.00 | 0.00 | 89 | 1008.8 |
| 20260506043221 | 24 | 161 | 0.0 | 0.0 | 0.00 | 0.00 | 0.00 | 88 | 1008.9 |
| 20260506042720 | 25 | 172 | 0.0 | 1.6 | 0.00 | 0.00 | 0.00 | 88 | 1008.8 |
| 20260506042218 | 25 | 170 | 0.0 | 1.6 | 0.00 | 0.00 | 0.00 | 88 | 1008.9 |
| 20260506041716 | 25 | 152 | 0.0 | 0.0 | 0.00 | 0.00 | 0.00 | 87 | 1008.7 |
| 20260506041213 | 25 | 139 | 1.6 | 3.2 | 0.00 | 0.00 | 0.00 | 87 | 1008.8 |
| 20260506040710 | 25 | 163 | 1.6 | 1.6 | 0.00 | 0.00 | 0.00 | 87 | 1008.8 |
| 20260506040207 | 25 | 170 | 0.0 | 0.0 | 0.00 | 0.00 | 0.00 | 87 | 1008.9 |
| 20260506035704 | 25 | 174 | 0.0 | 0.0 | 0.00 | 0.00 | 0.00 | 87 | 1008.8 |
| 20260506035201 | 25 | 168 | 0.0 | 0.0 | 0.00 | 0.00 | 0.00 | 87 | 1008.6 |
| 20260506034657 | 25 | 178 | 0.0 | 0.0 | 0.00 | 0.00 | 0.00 | 86 | 1008.9 |
| 20260506034155 | 25 | 162 | 0.0 | 0.0 | 0.00 | 0.00 | 0.00 | 86 | 1008.7 |
| 20260506033652 | 25 | 175 | 0.0 | 0.0 | 0.00 | 0.00 | 0.00 | 86 | 1008.6 |
| 20260506033149 | 25 | 189 | 0.0 | 1.6 | 0.00 | 0.00 | 0.00 | 85 | 1008.5 |
| 20260506032646 | 25 | 195 | 1.6 | 1.6 | 0.00 | 0.00 | 0.00 | 85 | 1008.7 |
| 20260506032143 | 25 | 172 | 0.0 | 1.6 | 0.00 | 0.00 | 0.00 | 85 | 1008.4 |
| 20260506031640 | 25 | 159 | 0.0 | 0.0 | 0.00 | 0.00 | 0.00 | 85 | 1008.3 |
| 20260506031136 | 25 | 164 | 0.0 | 0.0 | 0.00 | 0.00 | 0.00 | 85 | 1008.2 |
| 20260506030636 | 25 | 173 | 0.0 | 0.0 | 0.00 | 0.00 | 0.00 | 85 | 1008.1 |
| 20260506030132 | 25 | 174 | 0.0 | 0.0 | 0.00 | 0.00 | 0.00 | 84 | 1008.1 |
| 20260506025629 | 25 | 176 | 0.0 | 1.6 | 0.00 | 0.00 | 0.00 | 84 | 1008.1 |
| 20260506025125 | 25 | 170 | 0.0 | 1.6 | 0.00 | 0.00 | 0.00 | 84 | 1007.9 |
| 20260506024623 | 25 | 198 | 0.0 | 1.6 | 0.00 | 0.00 | 0.00 | 84 | 1007.8 |
| 20260506024118 | 25 | 187 | 0.0 | 1.6 | 0.00 | 0.00 | 0.00 | 84 | 1007.6 |
| 20260506023615 | 25 | 182 | 1.6 | 3.2 | 0.00 | 0.00 | 0.00 | 83 | 1007.6 |
| 20260506023112 | 25 | 160 | 0.0 | 0.0 | 0.00 | 0.00 | 0.00 | 83 | 1007.7 |
| 20260506022610 | 25 | 187 | 0.0 | 1.6 | 0.00 | 0.00 | 0.00 | 83 | 1007.7 |
| 20260506022107 | 25 | 162 | 0.0 | 0.0 | 0.00 | 0.00 | 0.00 | 83 | 1007.5 |
| 20260506021605 | 25 | 162 | 0.0 | 0.0 | 0.00 | 0.00 | 0.00 | 82 | 1007.3 |
| 20260506021101 | 26 | 154 | 0.0 | 0.0 | 0.00 | 0.00 | 0.00 | 81 | 1007.3 |
| 20260506020559 | 26 | 159 | 0.0 | 0.0 | 0.00 | 0.00 | 0.00 | 81 | 1007.3 |
| 20260506020056 | 26 | 164 | 0.0 | 0.0 | 0.00 | 0.00 | 0.00 | 81 | 1007.2 |
| 20260506015554 | 26 | 169 | 0.0 | 0.0 | 0.00 | 0.00 | 0.00 | 80 | 1007.1 |
| 20260506015050 | 26 | 165 | 0.0 | 0.0 | 0.00 | 0.00 | 0.00 | 80 | 1007.1 |
| 20260506014548 | 26 | 174 | 0.0 | 0.0 | 0.00 | 0.00 | 0.00 | 79 | 1007.1 |
| 20260506014043 | 26 | 179 | 0.0 | 0.0 | 0.00 | 0.00 | 0.00 | 79 | 1007.1 |
| 20260506013542 | 26 | 131 | 0.0 | 1.6 | 0.00 | 0.00 | 0.00 | 79 | 1006.8 |
| 20260506013038 | 26 | 164 | 0.0 | 1.6 | 0.00 | 0.00 | 0.00 | 78 | 1006.6 |
| 20260506012534 | 26 | 170 | 0.0 | 1.6 | 0.00 | 0.00 | 0.00 | 78 | 1006.7 |
| 20260506012031 | 27 | 168 | 0.0 | 0.0 | 0.00 | 0.00 | 0.00 | 78 | 1006.7 |
| 20260506011529 | 27 | 140 | 0.0 | 0.0 | 0.00 | 0.00 | 0.00 | 78 | 1006.5 |
| 20260506011025 | 27 | 169 | 0.0 | 0.0 | 0.00 | 0.00 | 0.00 | 77 | 1006.6 |
| 20260506010525 | 27 | 174 | 1.6 | 1.6 | 0.00 | 0.00 | 0.00 | 77 | 1006.4 |
| 20260506010021 | 27 | 175 | 0.0 | 0.0 | 0.00 | 0.00 | 0.00 | 77 | 1006.3 |
| 20260506005518 | 27 | 169 | 0.0 | 0.0 | 0.00 | 0.00 | 0.00 | 76 | 1006.4 |
| 20260506005013 | 27 | 101 | 1.6 | 3.2 | 0.00 | 0.00 | 0.00 | 76 | 1006.3 |
| 20260506004511 | 27 | 171 | 3.2 | 4.8 | 0.00 | 0.00 | 0.00 | 75 | 1006.3 |
| 20260506004008 | 28 | 162 | 0.0 | 1.6 | 0.00 | 0.00 | 0.00 | 75 | 1006.4 |
| 20260506003504 | 28 | 194 | 1.6 | 1.6 | 0.00 | 0.00 | 0.00 | 74 | 1006.3 |
| 20260506003000 | 28 | 164 | 1.6 | 3.2 | 0.00 | 0.00 | 0.00 | 74 | 1006.2 |
| 20260506002456 | 28 | 172 | 0.0 | 0.0 | 0.00 | 0.00 | 0.00 | 75 | 1006.4 |
| 20260506001951 | 28 | 177 | 1.6 | 1.6 | 0.00 | 0.00 | 0.00 | 72 | 1006.4 |
| 20260506001449 | 28 | 157 | 3.2 | 3.2 | 0.00 | 0.00 | 0.00 | 71 | 1006.4 |
| 20260506000946 | 29 | 165 | 1.6 | 1.6 | 0.00 | 0.00 | 0.00 | 71 | 1006.3 |
| 20260506000445 | 30 | 165 | 0.0 | 0.0 | 0.00 | 0.00 | 0.00 | 70 | 1006.3 |
| 20260505235940 | 30 | 175 | 1.6 | 1.6 | 0.00 | 0.00 | 0.00 | 66 | 1006.3 |
| 20260505235439 | 30 | 174 | 1.6 | 1.6 | 0.00 | 0.00 | 0.00 | 67 | 1006.2 |
| 20260505234935 | 30 | 201 | 0.0 | 1.6 | 0.00 | 0.00 | 0.00 | 67 | 1006.5 |
| 20260505234433 | 30 | 178 | 0.0 | 0.0 | 0.00 | 0.00 | 0.00 | 67 | 1006.3 |
| 20260505233929 | 30 | 206 | 1.6 | 3.2 | 0.00 | 0.00 | 0.00 | 66 | 1006.3 |
| 20260505233427 | 30 | 186 | 0.0 | 0.0 | 0.00 | 0.00 | 0.00 | 66 | 1006.4 |
| 20260505232924 | 30 | 204 | 3.2 | 3.2 | 0.00 | 0.00 | 0.00 | 66 | 1006.1 |
| 20260505232422 | 30 | 234 | 3.2 | 3.2 | 0.00 | 0.00 | 0.00 | 65 | 1006.3 |
| 20260505231918 | 30 | 181 | 0.0 | 0.0 | 0.00 | 0.00 | 0.00 | 67 | 1006.5 |
| 20260505231416 | 30 | 177 | 0.0 | 1.6 | 0.00 | 0.00 | 0.00 | 66 | 1006.4 |
| 20260505230914 | 30 | 178 | 1.6 | 1.6 | 0.00 | 0.00 | 0.00 | 65 | 1006.4 |
| 20260505230412 | 30 | 164 | 1.6 | 1.6 | 0.00 | 0.00 | 0.00 | 65 | 1006.4 |
| 20260505225908 | 30 | 156 | 0.0 | 1.6 | 0.00 | 0.00 | 0.00 | 65 | 1006.2 |
| 20260505225405 | 30 | 174 | 0.0 | 1.6 | 0.00 | 0.00 | 0.00 | 64 | 1006.4 |
| 20260505224901 | 30 | 176 | 1.6 | 1.6 | 0.00 | 0.00 | 0.00 | 64 | 1006.3 |
| 20260505224359 | 30 | 156 | 1.6 | 1.6 | 0.00 | 0.00 | 0.00 | 63 | 1006.1 |
| 20260505223855 | 30 | 168 | 0.0 | 1.6 | 0.00 | 0.00 | 0.00 | 66 | 1006.1 |
| 20260505223352 | 30 | 216 | 1.6 | 3.2 | 0.00 | 0.00 | 0.00 | 63 | 1006.3 |
| 20260505222848 | 30 | 193 | 1.6 | 3.2 | 0.00 | 0.00 | 0.00 | 63 | 1006.3 |
| 20260505222344 | 30 | 194 | 1.6 | 1.6 | 0.00 | 0.00 | 0.00 | 62 | 1006.3 |
| 20260505221841 | 31 | 207 | 4.8 | 4.8 | 0.00 | 0.00 | 0.00 | 62 | 1006.3 |
| 20260505221338 | 30 | 202 | 1.6 | 3.2 | 0.00 | 0.00 | 0.00 | 64 | 1006.4 |
| 20260505220835 | 31 | 228 | 4.8 | 8.0 | 0.00 | 0.00 | 0.00 | 63 | 1006.4 |
| 20260505220332 | 30 | 184 | 0.0 | 1.6 | 0.00 | 0.00 | 0.00 | 63 | 1006.3 |
| 20260505215830 | 31 | 202 | 3.2 | 3.2 | 0.00 | 0.00 | 0.00 | 60 | 1006.3 |
| 20260505215328 | 31 | 206 | 1.6 | 1.6 | 0.00 | 0.00 | 0.00 | 64 | 1006.3 |
| 20260505214826 | 31 | 178 | 0.0 | 1.6 | 0.00 | 0.00 | 0.00 | 62 | 1006.2 |
| 20260505214323 | 31 | 224 | 1.6 | 3.2 | 0.00 | 0.00 | 0.00 | 61 | 1006.2 |
| 20260505213820 | 31 | 202 | 1.6 | 1.6 | 0.00 | 0.00 | 0.00 | 59 | 1006.4 |
| 20260505213318 | 32 | 187 | 3.2 | 3.2 | 0.00 | 0.00 | 0.00 | 60 | 1006.6 |
| 20260505212813 | 32 | 179 | 3.2 | 3.2 | 0.00 | 0.00 | 0.00 | 61 | 1006.6 |
| 20260505212310 | 31 | 206 | 3.2 | 3.2 | 0.00 | 0.00 | 0.00 | 61 | 1006.8 |
| 20260505211807 | 31 | 211 | 1.6 | 3.2 | 0.00 | 0.00 | 0.00 | 63 | 1006.7 |
| 20260505211305 | 31 | 66 | 1.6 | 3.2 | 0.00 | 0.00 | 0.00 | 62 | 1006.6 |
| 20260505210801 | 31 | 196 | 1.6 | 1.6 | 0.00 | 0.00 | 0.00 | 62 | 1006.5 |
| 20260505210258 | 31 | 186 | 1.6 | 1.6 | 0.00 | 0.00 | 0.00 | 63 | 1006.6 |
| 20260505205755 | 31 | 192 | 1.6 | 3.2 | 0.00 | 0.00 | 0.00 | 61 | 1006.9 |
| 20260505205253 | 31 | 250 | 4.8 | 4.8 | 0.00 | 0.00 | 0.00 | 60 | 1006.9 |
| 20260505204749 | 31 | 233 | 3.2 | 3.2 | 0.00 | 0.00 | 0.00 | 60 | 1006.9 |
| 20260505204248 | 31 | 176 | 1.6 | 3.2 | 0.00 | 0.00 | 0.00 | 61 | 1007.1 |
| 20260505203744 | 31 | 161 | 3.2 | 3.2 | 0.00 | 0.00 | 0.00 | 63 | 1007.3 |
| 20260505203241 | 31 | 158 | 1.6 | 1.6 | 0.00 | 0.00 | 0.00 | 62 | 1007.4 |
| 20260505202737 | 31 | 230 | 1.6 | 3.2 | 0.00 | 0.00 | 0.00 | 62 | 1007.1 |
| 20260505202233 | 31 | 167 | 3.2 | 3.2 | 0.00 | 0.00 | 0.00 | 64 | 1007.2 |
| 20260505201730 | 31 | 226 | 3.2 | 3.2 | 0.00 | 0.00 | 0.00 | 61 | 1007.3 |
| 20260505201228 | 31 | 251 | 3.2 | 3.2 | 0.00 | 0.00 | 0.00 | 62 | 1007.5 |
| 20260505200726 | 31 | 177 | 4.8 | 4.8 | 0.00 | 0.00 | 0.00 | 63 | 1007.4 |
| 20260505200223 | 31 | 183 | 0.0 | 0.0 | 0.00 | 0.00 | 0.00 | 62 | 1007.2 |
| 20260505195718 | 31 | 182 | 3.2 | 3.2 | 0.00 | 0.00 | 0.00 | 64 | 1007.6 |
| 20260505195216 | 31 | 236 | 3.2 | 3.2 | 0.00 | 0.00 | 0.00 | 62 | 1007.6 |
| 20260505194713 | 31 | 183 | 3.2 | 3.2 | 0.00 | 0.00 | 0.00 | 65 | 1007.5 |
| 20260505194209 | 30 | 189 | 0.0 | 1.6 | 0.00 | 0.00 | 0.00 | 64 | 1007.7 |
| 20260505193705 | 31 | 196 | 3.2 | 4.8 | 0.00 | 0.00 | 0.00 | 63 | 1007.5 |
| 20260505193202 | 31 | 166 | 4.8 | 4.8 | 0.00 | 0.00 | 0.00 | 62 | 1007.6 |
| 20260505192701 | 31 | 183 | 4.8 | 8.0 | 0.00 | 0.00 | 0.00 | 62 | 1007.7 |
| 20260505192158 | 30 | 182 | 1.6 | 3.2 | 0.00 | 0.00 | 0.00 | 64 | 1007.8 |
| 20260505191656 | 30 | 238 | 3.2 | 3.2 | 0.00 | 0.00 | 0.00 | 63 | 1008.0 |
| 20260505191154 | 31 | 231 | 3.2 | 4.8 | 0.00 | 0.00 | 0.00 | 64 | 1008.0 |
| 20260505190650 | 30 | 169 | 0.0 | 1.6 | 0.00 | 0.00 | 0.00 | 66 | 1008.0 |
| 20260505190149 | 30 | 206 | 1.6 | 3.2 | 0.00 | 0.00 | 0.00 | 65 | 1008.1 |
| 20260505185646 | 30 | 207 | 1.6 | 1.6 | 0.00 | 0.00 | 0.00 | 65 | 1008.3 |
| 20260505185142 | 30 | 206 | 1.6 | 1.6 | 0.00 | 0.00 | 0.00 | 65 | 1008.3 |
| 20260505184639 | 30 | 164 | 3.2 | 3.2 | 0.00 | 0.00 | 0.00 | 65 | 1008.2 |
| 20260505184136 | 30 | 154 | 1.6 | 3.2 | 0.00 | 0.00 | 0.00 | 66 | 1008.5 |
| 20260505183633 | 30 | 254 | 3.2 | 3.2 | 0.00 | 0.00 | 0.00 | 66 | 1008.5 |
| 20260505183131 | 30 | 173 | 1.6 | 3.2 | 0.00 | 0.00 | 0.00 | 70 | 1008.5 |
| 20260505182627 | 29 | 188 | 3.2 | 3.2 | 0.00 | 0.00 | 0.00 | 69 | 1008.6 |
| 20260505182124 | 29 | 248 | 4.8 | 4.8 | 0.00 | 0.00 | 0.00 | 68 | 1008.8 |
| 20260505181620 | 28 | 192 | 4.8 | 9.7 | 0.00 | 0.00 | 0.00 | 69 | 1008.8 |
| 20260505181118 | 28 | 225 | 3.2 | 4.8 | 0.00 | 0.00 | 0.00 | 70 | 1009.0 |
| 20260505180614 | 28 | 210 | 1.6 | 3.2 | 0.00 | 0.00 | 0.00 | 70 | 1009.2 |
| 20260505180111 | 28 | 195 | 3.2 | 4.8 | 0.00 | 0.00 | 0.00 | 70 | 1009.0 |
| 20260505175607 | 28 | 120 | 3.2 | 4.8 | 0.00 | 0.00 | 0.00 | 71 | 1009.3 |
| 20260505175104 | 27 | 211 | 1.6 | 3.2 | 0.00 | 0.00 | 0.00 | 72 | 1009.5 |
| 20260505174600 | 28 | 264 | 6.4 | 8.0 | 0.00 | 0.00 | 0.00 | 69 | 1009.3 |
| 20260505174056 | 28 | 220 | 1.6 | 1.6 | 0.00 | 0.00 | 0.00 | 73 | 1009.3 |
| 20260505173553 | 27 | 195 | 3.2 | 3.2 | 0.00 | 0.00 | 0.00 | 72 | 1009.3 |
| 20260505173050 | 27 | 165 | 4.8 | 9.7 | 0.00 | 0.00 | 0.00 | 72 | 1009.5 |
| 20260505172548 | 27 | 213 | 3.2 | 3.2 | 0.00 | 0.00 | 0.00 | 74 | 1009.6 |
| 20260505172044 | 27 | 294 | 4.8 | 8.0 | 0.00 | 0.00 | 0.00 | 74 | 1009.6 |
| 20260505171539 | 27 | 172 | 4.8 | 8.0 | 0.00 | 0.00 | 0.00 | 72 | 1009.6 |
| 20260505171036 | 27 | 182 | 1.6 | 1.6 | 0.00 | 0.00 | 0.00 | 74 | 1009.5 |
| 20260505170533 | 26 | 196 | 1.6 | 1.6 | 0.00 | 0.00 | 0.00 | 77 | 1009.6 |
| 20260505170029 | 27 | 188 | 8.0 | 11.3 | 0.00 | 0.00 | 0.00 | 74 | 1009.7 |
| 20260505165525 | 27 | 230 | 3.2 | 3.2 | 0.00 | 0.00 | 0.00 | 76 | 1009.7 |
| 20260505165020 | 27 | 244 | 3.2 | 3.2 | 0.00 | 0.00 | 0.00 | 75 | 1009.8 |
| 20260505164516 | 26 | 246 | 4.8 | 4.8 | 0.00 | 0.00 | 0.00 | 75 | 1009.7 |
| 20260505164015 | 27 | 194 | 0.0 | 1.6 | 0.00 | 0.00 | 0.00 | 76 | 1009.7 |
| 20260505163513 | 26 | 181 | 4.8 | 8.0 | 0.00 | 0.00 | 0.00 | 77 | 1009.7 |
| 20260505163009 | 25 | 195 | 1.6 | 1.6 | 0.00 | 0.00 | 0.00 | 80 | 1009.9 |
| 20260505162503 | 26 | 178 | 1.6 | 1.6 | 0.00 | 0.00 | 0.00 | 76 | 1009.7 |
| 20260505161959 | 25 | 171 | 1.6 | 1.6 | 0.00 | 0.00 | 0.00 | 79 | 1009.8 |
| 20260505161456 | 25 | 165 | 1.6 | 1.6 | 0.00 | 0.00 | 0.00 | 79 | 1009.6 |
| 20260505160953 | 25 | 178 | 1.6 | 1.6 | 0.00 | 0.00 | 0.00 | 79 | 1009.7 |
| 20260505160452 | 25 | 201 | 3.2 | 4.8 | 0.00 | 0.00 | 0.00 | 80 | 1009.9 |
| 20260505152929 | 24 | 169 | 1.6 | 3.2 | 0.00 | 0.00 | 0.00 | 83 | 1009.7 |
| 20260505152426 | 24 | 242 | 4.8 | 4.8 | 0.00 | 0.00 | 0.00 | 82 | 1009.6 |
| 20260505151925 | 24 | 195 | 3.2 | 4.8 | 0.00 | 0.00 | 0.00 | 82 | 1009.5 |
| 20260505151421 | 24 | 167 | 4.8 | 4.8 | 0.00 | 0.00 | 0.00 | 81 | 1009.8 |
| 20260505150919 | 24 | 183 | 1.6 | 1.6 | 0.00 | 0.00 | 0.00 | 82 | 1009.6 |
| 20260505150416 | 24 | 181 | 3.2 | 4.8 | 0.00 | 0.00 | 0.00 | 82 | 1009.5 |
| 20260505140346 | 23 | 187 | 1.6 | 1.6 | 0.00 | 0.00 | 0.00 | 87 | 1009.4 |
| 20260505130309 | 22 | 229 | 1.6 | 1.6 | 0.00 | 0.00 | 0.00 | 89 | 1008.7 |